sat.trackr.live / text

‹ back to catalog

STARLINK-35240

NORAD 65655 · 2025-211D

PAYLOAD ACTIVE UNKNOWN

§ Identity

Operator
Country
US
Launch date
2025-09-19
Launch site
AFWTR
Launch vehicle
Mass (kg)
RCS (m²)

Purposes: comms

External: N2YO · Heavens-Above · Gunter

§ Orbital elements

Epoch: 2026-09-20T01:17:02.456160Z

Period
93.91 min
Inclination
97.2852°
Eccentricity
0.0001047
Mean motion
15.33454894 rev/d
Perigee alt
464.8 km
Apogee alt
466.2 km
Semi-major
6,843.7 km
B*
5.3460e-4
RAAN
303.2751°
Arg perigee
99.4551°
Mean anomaly
260.6810°
Rev number
5,645

§ Raw data

STARLINK-352401 65655U 25211D   26263.05350065  .00017228  00000+0  53460-3 0  99912 65655  97.2852 303.2751 0001047  99.4551 260.6810 15.33454894 56457

JSON: /api/v1/satellites/65655 · /tle

For live sub-satellite position, see the globe view (requires WebGL).

§ Visibility from observer

Set your observer location to see the next 7 days of passes ≥ 10°. The values pass through the URL so the page stays shareable.

No JS? Fill the form by hand. The geolocation button needs JavaScript.